Location: Unspecified
(45.6669°N, 0.0000°E)
Time: 18:51:51
(UTC+00:00)

ISS - Pass Details

Date: 22 May 2019
Orbit: 408 x 418 km, 51.6° (Epoch: 18 June)

Event Time Altitude Azimuth Distance (km) Brightness Sun altitude
Rises 00:37:38 0° 298° (WNW) 2,367 0.3 -23.4°
Reaches altitude 10° 00:39:45 10° 303° (WNW) 1,503 -0.7 -23.3°
Enters shadow 00:41:34 28° 314° (NW) 814 -2.1 -23.3°
